Location: ????????
(41.2031°N, 22.5756°E)
Time: 14:45:36
(UTC+00:00)

BREEZE-M TANK - Pass Details

Date: 01 December 2020
Orbit: 585 x 24701 km, 45.3° (Epoch: 20 January)

Event Time Altitude Azimuth Distance (km) Brightness Sun altitude
Rises 15:45:33 0° 294° (WNW) 5,364 8.1 -8.3°
Reaches altitude 10° 15:50:09 10° 290° (WNW) 3,135 6.9 -9.1°
Maximum altitude 15:55:41 49° 215° (SW) 845 3.7 -10.1°
Drops below altitude 10° 15:59:00 10° 138° (SE) 1,899 4.8 -10.7°
Sets 16:01:04 0° 131° (SE) 2,937 5.7 -11.0°
